[[{"header":{"parameterUnit":"m.s-1","parameterCategory":1,"la1":30.2991,"la2":30.254,"lo1":-89.0895,"lo2":-89.0444,"dy":0.0017,"dx":0.0017,"nx":28,"ny":28,"refTime":"2024-05-02T03:00:00:Z","depth":0,"parameterNumber":2,"parameterNumberName":"U-component_of_WINDS"},"data":[0,0,0,0,0,0,0,0,0,0,0,0,0,0,0,0,0,0,0,0,0,0,0,0,0,0,0,0,0,0,0,0,0,0,0,0,0,0,0,0,0,0,0,0,0,0,0,0,0,0,0,0,0,0,0,0,0,0,-2.4571,-2.4572,0,-2.4585,-2.4586,-2.4586,-2.454,-2.4538,-2.4537,-2.4535,-2.455,-2.4552,-2.4554,0,0,0,0,0,0,0,0,0,0,0,0,0,-2.4506,-2.4507,-2.4571,-2.4572,-2.4572,-2.4585,-2.4586,-2.4586,-2.454,-2.4538,-2.4536,-2.4535,-2.455,-2.4552,-2.4554,0,0,0,0,0,0,0,0,0,0,0,0,0,-2.4528,-2.4507,-2.4571,-2.455,-2.4549,-2.4585,-2.4586,-2.4586,-2.454,-2.4538,-2.4536,-2.4534,-2.4549,-2.4552,-2.4554,-2.4612,0,0,-2.4562,-2.4563,0,0,0,0,0,0,0,0,-2.4527,-2.4531,-2.4553,-2.4552,-2.455,-2.4559,-2.4568,-2.4595,-2.4541,-2.4543,-2.4535,-2.4533,-2.4555,-2.4557,-2.4564,-2.4613,-2.4613,-2.4562,-2.4564,-2.4565,-2.4566,0,0,0,0,0,0,0,-2.4526,-2.453,-2.4577,-2.4554,-2.4552,-2.4541,-2.4542,-2.4573,-2.4561,-2.4543,-2.454,-2.4542,-2.4554,-2.4562,-2.4564,-2.4614,-2.4562,-2.4564,-2.4566,-2.4567,-2.471,-2.4712,0,0,0,0,0,0,-2.4527,-2.4529,-2.4577,-2.4577,-2.4533,-2.4543,-2.4544,-2.4558,-2.456,-2.4559,-2.4544,-2.454,-2.4558,-2.4561,-2.4564,-2.4632,-2.4565,-2.4567,-2.4569,-2.4708,-2.4711,-2.4713,0,0,0,0,0,0,-2.4525,-2.4531,-2.4576,-2.4552,-2.4557,-2.4547,-2.4562,-2.4559,-2.4567,-2.4561,-2.4559,-2.4554,-2.4557,-2.4561,-2.46,-2.4632,-2.4568,-2.4571,-2.4705,-2.4709,-2.4712,-2.4767,0,0,0,0,0,0,-2.4524,-2.4531,-2.4553,-2.4553,-2.4559,-2.4612,-2.4564,-2.4561,-2.4572,-2.4567,-2.457,-2.4569,-2.4556,-2.4597,-2.4603,-2.4634,-2.4573,-2.4702,-2.4707,-2.4711,-2.4763,-2.4772,-2.478,0,0,0,0,0,-2.4522,-2.4568,-2.4554,-2.456,-2.4585,-2.4614,-2.4617,-2.46,-2.4575,-2.4596,-2.4592,-2.4568,-2.4628,-2.4601,-2.4608,-2.464,-2.47,-2.4706,-2.4711,-2.4759,-2.477,-2.478,0,0,0,0,0,0,-2.4572,-2.4568,-2.4552,-2.46,-2.4608,-2.4606,-2.4632,-2.4613,-2.4628,-2.4623,-2.4603,-2.4604,-2.4647,-2.4648,-2.4618,-2.4696,-2.466,-2.4666,-2.4694,-2.4705,-2.4714,-2.4712,-2.4575,0,0,0,0,0,-2.4589,-2.4612,-2.4607,-2.465,-2.4654,-2.4643,-2.4655,-2.4642,-2.4648,-2.4651,-2.465,-2.4658,-2.4678,-2.4692,-2.471,-2.4763,-2.4763,-2.4788,-2.4797,-2.4805,-2.481,-2.4838,-2.4849,-2.473,-2.473,-2.473,0,0,-2.4623,-2.4624,-2.464,-2.466,-2.4664,-2.4688,-2.4646,-2.4673,-2.4691,-2.4655,-2.4692,-2.4692,-2.4699,-2.4746,-2.4766,-2.4748,-2.4843,-2.4811,-2.4817,-2.4819,-2.4844,-2.4856,-2.4866,-2.4733,-2.4733,-2.4732,0,0,-2.4699,-2.4702,-2.4737,-2.4742,-2.4749,-2.4741,-2.475,-2.4751,-2.4749,-2.4786,-2.476,-2.4781,-2.4817,-2.4823,-2.4831,-2.4909,-2.4888,-2.4916,-2.4962,-2.4989,-2.4998,-2.5006,-2.5034,-2.5044,-2.4922,-2.4922,-2.4922,0,-2.4741,-2.4776,-2.4758,-2.4787,-2.4797,-2.4766,-2.4802,-2.4808,-2.4821,-2.4828,-2.4807,-2.4851,-2.4854,-2.4901,-2.492,-2.4928,-2.4937,-2.4915,-2.4998,-2.5006,-2.5014,-2.5039,-2.505,-2.4925,-2.4925,-2.4924,-2.4924,0,-2.4827,-2.4852,-2.488,-2.4893,-2.4906,-2.4938,-2.4926,-2.4941,-2.4927,-2.4922,-2.496,-2.4962,-2.498,-2.4991,-2.4978,-2.5037,-2.5025,-2.5002,-2.4964,-2.5029,-2.5052,-2.5062,-2.493,-2.4929,-2.4928,-2.4927,0,0,-2.4934,-2.4936,-2.4947,-2.4952,-2.4957,-2.4976,-2.5008,-2.5025,-2.5039,-2.5049,-2.5074,-2.5105,-2.5084,-2.5093,-2.508,-2.5105,-2.5166,-2.5078,-2.5078,-2.5094,-2.523,-2.5246,-2.5258,-2.5152,-2.5154,-2.5155,-2.5229,0,-2.5007,-2.506,-2.5045,-2.5098,-2.5121,-2.5092,-2.512,-2.5126,-2.5122,-2.5141,-2.5137,-2.5159,-2.5129,-2.5134,-2.5157,-2.5153,-2.5193,-2.5148,-2.5175,-2.5176,-2.5173,-2.5271,-2.5288,-2.5357,-2.5238,-2.524,-2.5241,0,-2.5099,-2.5113,-2.5168,-2.517,-2.5179,-2.5203,-2.5218,-2.5237,-2.5244,-2.5239,-2.5249,-2.5232,-2.5263,-2.5227,-2.5269,-2.5239,-2.525,-2.525,-2.5252,-2.5253,-2.5212,-2.5273,-2.5379,-2.5389,-2.5256,-2.5254,-2.5253,0,-2.5171,-2.5202,-2.5239,-2.5245,-2.5248,-2.5266,-2.5268,-2.5273,-2.5284,-2.5298,-2.5305,-2.5322,-2.5331,-2.5345,-2.5332,-2.5307,-2.5377,-2.5339,-2.5373,-2.5374,-2.5388,-2.5387,-2.5496,-2.5397,-2.5397,-2.5397,-2.5397,0,-2.5253,-2.5288,-2.5271,-2.5294,-2.5332,-2.5315,-2.5354,-2.5353,-2.5357,-2.5379,-2.5356,-2.5378,-2.5361,-2.5381,-2.5372,-2.5408,-2.5412,-2.5409,-2.5406,-2.5411,-2.5411,-2.5417,-2.5411,-2.5399,-2.5399,-2.5398,-2.5398,0,-2.5339,-2.5329,-2.5367,-2.5367,-2.5368,-2.5396,-2.5396,-2.5417,-2.5412,-2.544,-2.5446,-2.5437,-2.546,-2.5449,-2.5473,-2.5466,-2.5513,-2.5504,-2.551,-2.5508,-2.5542,-2.5539,-2.5658,-2.5672,-2.5565,-2.5566,-2.5566,0,-2.5392,-2.5418,-2.542,-2.5433,-2.5437,-2.5458,-2.547,-2.5454,-2.5467,-2.5477,-2.5497,-2.5518,-2.5533,-2.557,-2.5566,-2.5584,-2.5575,-2.5615,-2.5577,-2.5581,-2.5574,-2.5572,-2.5575,-2.5622,-2.5624,-2.5625,-2.5626,0,-2.5487,-2.5481,-2.5498,-2.5514,-2.5528,-2.554,-2.5549,-2.5562,-2.5546,-2.5562,-2.5585,-2.5596,-2.562,-2.5641,-2.5656,-2.5659,-2.564,-2.5638,-2.5646,-2.5651,-2.5653,-2.5651,-2.553,-2.5635,-2.5634,-2.5633,-2.5633,-2.5632,-2.5557,-2.5579,-2.5584,-2.5604,-2.5609,-2.5619,-2.5639,-2.5636,-2.5654,-2.5672,-2.5662,-2.5688,-2.5694,-2.5713,-2.5718,-2.5739,-2.5723,-2.5736,-2.5739,-2.5742,-2.5746,-2.5651,-2.5742,-2.5741,-2.5741,-2.5741,-2.5741,0,-2.565,-2.5652,-2.5671,-2.5685,-2.5701,-2.5681,-2.5691,-2.5706,-2.5729,-2.5736,-2.5752,-2.5777,-2.5797,-2.5795,-2.5813,-2.583,-2.5821,-2.5835,-2.5833,-2.5834,-2.576,-2.575,-2.5841,-2.5841,-2.5841,-2.5841,-2.5841,-2.5841,-2.5701,-2.5736,-2.573,-2.5768,-2.577,-2.5795,-2.5802,-2.5811,-2.5817,-2.5846,-2.5862,-2.5861,-2.5864,-2.5883,-2.59,-2.5899,-2.5906,-2.5923,-2.5918,-2.5849,-2.5839,-2.583,-2.582,-2.5925,-2.5925,-2.5991,-2.5991,-2.5992]},{"header":{"parameterUnit":"m.s-1","parameterCategory":1,"la1":30.2991,"la2":30.254,"lo1":-89.0895,"lo2":-89.0444,"dy":0.0017,"dx":0.0017,"nx":28,"ny":28,"refTime":"2024-05-02T03:00:00:Z","depth":0,"parameterNumber":3,"parameterNumberName":"V-component_of_WINDS"},"data":[0,0,0,0,0,0,0,0,0,0,0,0,0,0,0,0,0,0,0,0,0,0,0,0,0,0,0,0,0,0,0,0,0,0,0,0,0,0,0,0,0,0,0,0,0,0,0,0,0,0,0,0,0,0,0,0,0,0,3.1923,3.1923,0,3.1949,3.1949,3.195,3.192,3.1919,3.1918,3.1917,3.1941,3.1943,3.1944,0,0,0,0,0,0,0,0,0,0,0,0,0,3.1846,3.1848,3.1923,3.1923,3.1924,3.1949,3.1949,3.195,3.192,3.1919,3.1917,3.1916,3.1941,3.1943,3.1945,0,0,0,0,0,0,0,0,0,0,0,0,0,3.1877,3.1848,3.1923,3.1912,3.1911,3.1949,3.1949,3.195,3.192,3.1919,3.1917,3.1915,3.194,3.1942,3.1945,3.1994,0,0,3.1953,3.1954,0,0,0,0,0,0,0,0,3.1875,3.188,3.1913,3.1913,3.1912,3.193,3.1931,3.1965,3.1921,3.1917,3.1917,3.1915,3.1939,3.1941,3.195,3.1995,3.1996,3.1953,3.1954,3.1955,3.1956,0,0,0,0,0,0,0,3.1873,3.1878,3.1933,3.1914,3.1913,3.1905,3.1908,3.1938,3.1937,3.1917,3.1915,3.1919,3.1938,3.1947,3.195,3.1997,3.1953,3.1955,3.1957,3.1958,3.2085,3.2087,0,0,0,0,0,0,3.1872,3.1877,3.1932,3.1934,3.1889,3.1908,3.1911,3.1926,3.1936,3.1936,3.192,3.1917,3.1944,3.1947,3.1951,3.2009,3.1955,3.1958,3.1959,3.2083,3.2085,3.2087,0,0,0,0,0,0,3.1871,3.1878,3.1931,3.1905,3.1911,3.1911,3.1928,3.1927,3.1936,3.1939,3.1938,3.193,3.1942,3.1947,3.1984,3.201,3.1959,3.1961,3.2081,3.2084,3.2086,3.2127,0,0,0,0,0,0,3.1869,3.1877,3.1896,3.1906,3.1913,3.1965,3.193,3.1929,3.1941,3.1938,3.1948,3.1948,3.1941,3.198,3.1986,3.2012,3.1963,3.2079,3.2082,3.2085,3.2124,3.2131,3.2138,0,0,0,0,0,3.1866,3.1906,3.1897,3.1904,3.1936,3.1966,3.197,3.1963,3.1943,3.1962,3.1964,3.1947,3.2006,3.1984,3.1991,3.2018,3.2077,3.2081,3.2085,3.212,3.213,3.2137,0,0,0,0,0,0,3.1898,3.1907,3.1897,3.1941,3.1954,3.1961,3.1984,3.1973,3.199,3.1986,3.1976,3.1978,3.2018,3.2021,3.1997,3.2067,3.2038,3.2044,3.2063,3.2071,3.2078,3.2076,3.1965,0,0,0,0,0,3.1911,3.1935,3.1941,3.1979,3.1986,3.1984,3.1997,3.1991,3.2002,3.2007,3.2011,3.2023,3.2044,3.2058,3.2077,3.2124,3.2126,3.2146,3.2153,3.2159,3.2164,3.219,3.2199,3.2101,3.2101,3.2101,0,0,3.1936,3.1944,3.1959,3.1986,3.1994,3.2019,3.1989,3.2016,3.2034,3.2011,3.2046,3.205,3.2062,3.2104,3.2123,3.2109,3.2192,3.2164,3.2169,3.2171,3.2195,3.2204,3.2213,3.2104,3.2103,3.2103,0,0,3.1995,3.2003,3.2037,3.2046,3.206,3.2059,3.2067,3.2077,3.2079,3.2115,3.2098,3.212,3.2156,3.2166,3.2176,3.224,3.2226,3.2247,3.2283,3.2309,3.2316,3.2323,3.2346,3.2355,3.2252,3.2252,3.2252,0,3.2024,3.2062,3.2055,3.2084,3.2096,3.2078,3.2111,3.2121,3.214,3.2149,3.2133,3.2179,3.2186,3.2231,3.2247,3.2255,3.2264,3.2245,3.2316,3.2323,3.2329,3.2351,3.236,3.2255,3.2254,3.2254,3.2254,0,3.2098,3.2124,3.2149,3.217,3.2185,3.2216,3.2214,3.223,3.2223,3.2223,3.226,3.2268,3.2289,3.23,3.2292,3.2344,3.2335,3.2318,3.2288,3.2341,3.2361,3.237,3.2258,3.2257,3.2257,3.2256,0,0,3.2176,3.2194,3.2203,3.2213,3.2228,3.2248,3.2278,3.23,3.2314,3.2329,3.2354,3.2386,3.2371,3.2382,3.2376,3.2398,3.245,3.2379,3.2379,3.2392,3.2508,3.252,3.253,3.2441,3.2442,3.2444,3.2507,0,3.2236,3.229,3.2285,3.2336,3.2361,3.2344,3.2371,3.2383,3.2385,3.2406,3.2407,3.2431,3.2408,3.2415,3.2437,3.2439,3.2473,3.2434,3.2464,3.2465,3.2461,3.2541,3.2554,3.2613,3.2515,3.2516,3.2517,0,3.2312,3.2331,3.2385,3.2397,3.2407,3.2431,3.2452,3.2472,3.2485,3.2485,3.2499,3.2489,3.252,3.2491,3.2533,3.2507,3.2519,3.2522,3.2524,3.2526,3.2494,3.2545,3.2632,3.2641,3.253,3.2529,3.2528,0,3.2365,3.2403,3.2441,3.2449,3.2464,3.2482,3.2489,3.2501,3.2515,3.2532,3.2541,3.2562,3.2573,3.2589,3.2586,3.2565,3.2629,3.26,3.263,3.263,3.2643,3.2643,3.2733,3.2652,3.2651,3.2651,3.2651,0,3.2432,3.2466,3.2465,3.2488,3.2525,3.2519,3.2556,3.2561,3.2572,3.2595,3.2582,3.2604,3.2598,3.262,3.2617,3.2653,3.2658,3.2659,3.2658,3.266,3.266,3.2667,3.2663,3.2654,3.2653,3.2653,3.2652,0,3.2497,3.2497,3.2537,3.2549,3.2553,3.258,3.2589,3.2611,3.2613,3.2643,3.2649,3.2651,3.2677,3.2675,3.2703,3.2701,3.2746,3.2739,3.2741,3.274,3.277,3.2768,3.2869,3.2882,3.2792,3.2793,3.2793,0,3.2539,3.2565,3.258,3.2595,3.2604,3.2628,3.2643,3.2639,3.2654,3.2672,3.2692,3.2716,3.2736,3.2777,3.2781,3.2802,3.2797,3.2831,3.28,3.2802,3.2797,3.2796,3.2799,3.2836,3.2838,3.2838,3.2839,0,3.2615,3.2615,3.2636,3.2659,3.2677,3.2694,3.271,3.2723,3.2721,3.2739,3.2765,3.278,3.281,3.2834,3.2855,3.2862,3.285,3.2849,3.2857,3.286,3.286,3.286,3.2758,3.2846,3.2846,3.2845,3.2845,3.2844,3.267,3.2693,3.2707,3.2732,3.2744,3.2759,3.2781,3.2786,3.2808,3.2832,3.2828,3.2858,3.2871,3.2899,3.2908,3.293,3.2918,3.293,3.2933,3.2936,3.2939,3.2857,3.2934,3.2934,3.2934,3.2934,3.2933,0,3.2745,3.2754,3.2778,3.2801,3.2821,3.2809,3.2826,3.2844,3.287,3.2884,3.2904,3.2935,3.2959,3.2965,3.2988,3.3005,3.3001,3.3011,3.301,3.3012,3.2949,3.294,3.3015,3.3015,3.3015,3.3015,3.3015,3.3015,3.2787,3.2825,3.2826,3.287,3.2878,3.2908,3.2919,3.2933,3.2944,3.298,3.3,3.3004,3.3015,3.3039,3.3061,3.3062,3.3071,3.3084,3.3083,3.3024,3.3016,3.3008,3.3,3.3086,3.3086,3.3145,3.3145,3.3145]}]]